Theta_e
329 330 327 326 326 328 330 335 325 319 319 319 320 320 322 324 326 330 331 332 332 332 331 334 335 335 339 341 341 342 341 340 341 342 340 343 345 345 346 346 346 345 344
328 330 329 326 327 331 334 330 322 321 321 321 321 323 322 324 327 329 331 332 333 332 332 332 334 335 338 339 340 341 342 340 342 343 341 343 345 344 345 345 344 344 343
322 326 326 325 328 328 327 325 324 323 323 324 324 324 323 325 327 329 331 332 332 333 332 332 334 335 336 337 339 339 340 340 342 343 342 345 344 344 342 341 343 342 342
320 319 323 325 326 326 326 325 326 328 329 328 327 324 324 325 327 328 329 330 330 332 332 331 332 333 335 337 338 338 339 340 339 343 342 343 341 340 339 339 343 340 340
316 316 319 319 323 327 334 333 329 330 330 329 328 325 324 325 327 328 328 329 330 330 330 330 332 332 333 336 335 339 338 340 343 343 342 339 335 336 337 339 341 341 339
315 315 317 322 327 328 334 334 332 331 330 328 327 327 325 325 326 327 327 327 329 330 329 331 331 331 332 334 336 339 338 339 344 342 340 340 342 335 337 338 340 338 339
314 315 320 324 328 335 334 332 330 328 326 325 325 325 326 325 326 326 326 326 327 328 329 329 332 331 332 335 335 337 337 338 342 341 339 342 333 333 338 339 339 338 339
317 318 317 321 324 325 327 327 325 325 324 324 324 324 326 326 326 325 327 326 325 326 329 328 330 331 331 333 330 335 336 337 340 339 338 337 336 334 337 339 337 336 337
313 315 316 315 316 323 327 321 319 320 324 326 324 325 326 325 326 326 324 326 326 326 328 329 330 330 332 331 330 333 336 337 338 339 338 339 340 336 340 338 336 337 338
315 318 319 317 317 319 318 318 320 321 322 324 323 323 324 324 324 326 326 325 326 326 328 329 331 332 330 331 330 331 337 338 337 338 337 336 340 337 340 337 335 337 338
319 320 321 319 318 318 319 319 320 319 320 322 320 320 320 320 321 322 324 324 326 326 328 329 331 332 332 330 329 330 337 338 336 336 339 336 337 333 333 333 336 337 337
320 320 320 319 318 319 319 320 319 319 320 319 319 319 318 316 317 320 322 323 325 326 328 329 331 332 333 330 329 333 338 336 336 338 338 336 335 338 339 337 338 337 335
319 319 318 319 319 321 320 320 319 319 318 318 318 319 319 320 317 320 321 322 323 325 327 329 331 332 331 330 329 336 336 333 335 338 337 333 332 341 339 339 337 335 334
319 319 318 319 321 321 320 320 320 319 318 319 318 319 320 319 320 316 318 322 323 323 325 326 326 328 329 330 330 335 334 335 336 337 335 338 339 340 339 339 336 334 334
318 319 318 319 320 322 320 322 322 321 320 321 320 321 320 321 321 318 319 320 320 323 324 325 326 327 328 330 329 334 333 334 335 334 335 335 339 339 339 337 338 336 335
318 318 318 320 321 321 321 322 322 322 321 321 321 320 321 321 322 322 322 321 322 323 324 325 326 326 327 330 329 333 334 333 335 333 333 332 331 334 338 337 338 337 337
318 318 318 322 322 322 321 322 323 322 321 322 320 320 320 321 322 323 323 323 323 324 324 325 325 325 327 330 331 333 334 332 333 334 332 329 328 338 335 336 336 336 337
318 319 320 323 323 322 322 324 324 324 323 323 323 323 323 323 323 323 323 323 323 324 325 326 325 326 327 331 334 334 333 332 334 334 329 330 333 337 335 335 336 335 336
318 318 322 323 324 325 324 324 325 325 325 324 324 324 324 324 324 324 324 324 323 324 325 325 326 326 328 331 331 332 332 334 333 332 330 331 334 332 333 335 335 335 335
319 318 318 322 323 323 324 325 325 325 325 324 324 324 324 324 325 325 325 325 325 326 325 326 326 326 329 331 332 333 332 333 333 332 332 331 331 330 331 332 333 334 335
321 319 318 322 323 323 323 324 325 325 326 325 324 324 322 323 324 324 322 321 324 326 327 326 326 328 330 331 331 331 331 331 330 328 329 332 329 329 331 334 334 333 334
319 321 317 320 322 323 324 324 325 326 325 325 324 324 324 325 323 325 325 325 327 327 327 327 328 329 330 330 330 330 330 329 330 330 331 332 332 331 331 332 333 333 333
318 318 320 315 316 317 325 325 325 326 326 326 321 325 327 324 325 327 327 327 328 327 328 328 329 330 330 330 330 330 331 332 326 327 332 332 332 332 331 331 332 332 332
321 318 317 317 317 317 325 326 326 326 326 326 326 326 326 327 327 327 327 327 327 328 328 328 329 330 330 329 330 330 330 329 327 327 327 330 331 330 331 331 331 332 331
322 320 320 320 319 319 326 325 325 325 326 327 326 326 325 326 326 326 326 326 327 327 326 328 329 329 329 329 329 328 328 327 327 327 325 321 328 329 330 330 331 331 332
323 321 320 324 319 322 325 323 320 321 321 325 327 326 323 324 325 326 327 327 327 328 328 328 327 328 329 329 328 328 327 327 326 325 325 319 319 321 325 326 329 329 329
Wind_Speed
23 13 16 15 13 13 13 13 11 11 11 11 12 13 11 11 12 11 12 11 11 9 8 7 6 5 4 3 8 11 17 13 15 18 15 13 13 16 17 18 20 21 21
6 22 14 17 16 15 14 15 14 14 14 14 14 12 11 11 12 11 11 11 10 11 9 8 7 5 4 2 5 10 15 15 15 17 17 15 15 19 18 18 19 21 21
6 12 17 19 19 17 17 16 17 17 17 16 14 13 12 12 12 12 11 11 11 11 11 10 8 5 4 3 3 10 12 18 15 15 18 17 19 18 17 18 19 20 21
8 8 16 19 20 21 19 18 19 18 17 17 16 15 14 13 12 13 12 12 11 11 12 12 10 8 6 5 4 8 11 14 18 16 20 13 22 17 15 18 18 19 21
6 6 10 14 20 20 18 18 20 18 18 19 18 17 16 15 13 12 12 12 12 12 13 14 12 10 9 7 5 8 12 15 18 22 23 19 16 18 19 17 18 20 22
8 8 12 16 18 17 17 17 19 20 20 21 20 20 18 16 15 13 12 11 11 12 14 14 14 13 11 9 7 7 14 15 18 21 27 24 19 21 20 21 20 21 21
9 8 9 12 13 15 16 18 21 22 24 24 22 22 21 19 18 16 15 14 13 13 14 16 14 15 14 11 9 8 15 17 15 17 27 17 22 21 21 20 20 21 21
2 2 4 8 12 15 16 19 21 23 25 25 25 24 23 21 20 18 17 15 14 14 15 17 17 17 17 14 11 9 15 18 16 19 25 23 22 23 23 23 21 22 20
3 1 3 9 12 15 16 18 19 20 19 18 22 25 23 21 22 21 19 15 14 15 16 18 18 17 16 15 11 10 14 19 19 17 26 21 25 23 22 21 20 22 22
1 2 5 10 10 10 13 17 16 18 18 15 16 17 19 21 23 24 19 16 15 17 16 18 18 18 18 16 12 11 15 19 21 18 27 24 23 24 23 23 24 22 21
3 6 8 7 9 13 16 15 16 16 15 14 17 18 21 22 23 22 21 21 16 16 16 17 18 19 18 15 12 12 18 20 21 21 20 26 25 22 22 27 26 24 22
6 7 6 10 11 15 14 14 14 13 12 11 13 14 15 16 18 22 26 23 17 16 16 16 19 20 18 16 13 14 21 21 22 22 21 29 25 22 24 25 26 23 21
7 7 10 9 11 14 12 13 12 10 11 12 13 12 12 14 13 15 16 18 17 15 15 16 19 20 19 18 15 19 22 22 24 25 24 28 28 26 24 24 24 23 24
6 7 10 7 10 12 10 11 12 12 12 12 10 7 7 8 9 11 14 13 14 14 14 15 19 20 19 19 17 23 24 23 23 27 34 29 29 27 26 26 25 26 25
7 7 9 7 10 12 9 11 13 11 10 8 6 4 3 2 4 9 11 11 12 9 10 13 16 18 18 19 18 25 27 27 27 30 30 29 27 27 26 26 26 27 27
6 7 9 8 9 12 9 11 11 10 6 6 6 5 4 3 5 9 11 11 11 10 9 10 13 16 19 19 19 25 28 27 29 30 30 30 25 26 28 28 29 28 26
5 7 8 9 8 11 7 9 9 8 6 6 4 5 6 5 5 7 9 10 11 11 10 11 13 14 15 17 21 26 30 28 30 29 27 29 25 27 29 29 28 28 26
4 7 9 8 8 10 7 9 9 7 6 6 5 5 6 7 8 7 9 11 13 12 12 14 17 16 18 21 21 27 28 29 29 30 32 26 23 29 29 29 28 28 27
4 6 7 9 9 10 9 9 8 7 5 4 5 5 6 6 4 9 10 12 14 16 17 19 20 20 21 22 23 25 27 29 31 28 28 21 20 20 24 26 27 28 28
3 5 8 9 10 11 9 8 7 7 6 7 6 3 1 1 4 12 14 15 15 20 20 23 25 22 22 26 25 25 24 26 27 28 24 22 21 22 20 22 22 24 25
2 4 7 9 11 13 10 9 8 10 9 10 8 6 4 2 8 14 15 12 12 20 23 26 26 27 25 32 25 27 27 28 28 29 23 21 22 19 17 20 21 19 21
3 2 3 5 9 13 11 8 7 12 10 10 7 9 8 10 13 11 13 15 17 23 24 26 29 25 28 28 20 23 7 16 21 23 22 19 21 21 21 21 21 23 23
2 2 3 4 8 10 12 9 8 7 9 11 6 11 14 16 14 18 21 21 21 23 21 28 23 28 25 25 27 7 6 4 12 17 21 22 25 25 21 20 19 19 20
1 3 3 3 7 7 8 10 10 8 11 10 8 8 16 19 21 20 14 15 21 21 24 25 22 24 32 22 19 20 7 21 4 4 24 23 22 20 17 18 19 19 17
5 3 1 4 6 3 6 9 11 10 13 9 10 11 12 13 16 13 16 16 17 23 22 24 25 28 31 23 24 25 24 21 15 8 6 11 21 16 14 14 13 14 14
9 5 3 2 3 4 6 7 9 7 9 13 12 14 11 7 5 10 8 12 16 25 29 26 27 22 22 22 26 26 22 13 19 13 7 9 11 10 14 14 14 14 13
Wind_Direction
201 200 207 219 227 232 234 233 238 247 253 263 281 286 279 277 277 275 269 265 256 260 254 263 268 280 302 306 214 211 203 193 201 192 188 176 179 164 151 143 140 138 137
196 210 226 225 226 230 233 238 242 251 252 262 275 267 263 264 268 269 267 263 252 252 253 250 252 266 297 298 217 203 203 191 201 192 190 184 181 160 148 142 143 141 139
209 217 228 229 227 239 244 245 248 249 250 260 269 263 256 253 256 260 259 262 260 254 250 249 252 247 263 278 222 211 200 198 190 182 174 169 167 153 147 143 143 139 140
221 243 225 227 235 241 240 242 250 244 245 252 261 263 258 252 246 248 254 259 261 257 246 249 248 244 240 253 225 211 202 203 197 183 180 159 140 138 140 143 142 144 138
235 228 232 239 241 244 236 241 246 247 252 256 260 261 257 251 242 241 245 252 259 258 252 242 243 243 237 243 235 210 205 201 183 188 172 142 142 139 140 144 149 143 141
220 227 230 236 241 246 241 245 252 254 258 262 265 263 258 250 242 239 241 245 258 261 250 248 234 237 238 234 239 212 196 193 179 177 162 154 158 148 152 157 150 143 142
251 245 226 234 243 246 249 256 259 264 266 266 264 261 252 243 239 239 244 247 255 265 253 247 240 229 232 226 225 213 198 191 185 173 166 152 147 153 156 160 156 152 145
122 194 231 240 252 257 257 263 271 274 275 268 262 258 250 238 233 235 238 243 249 256 255 240 237 223 227 226 223 206 196 195 189 165 166 163 164 167 168 160 156 153 148
110 56 273 241 244 247 256 269 279 282 284 275 269 257 254 242 234 236 237 237 246 250 253 235 239 227 223 222 220 202 193 189 192 180 180 179 174 167 166 163 158 152 149
175 294 281 264 261 282 291 293 285 286 288 290 276 264 254 254 246 237 240 238 247 247 248 237 240 228 219 218 216 202 187 184 189 184 180 182 176 175 170 170 162 159 149
313 307 294 272 291 307 311 305 297 299 290 280 277 270 269 262 254 249 241 240 235 245 244 235 237 221 214 210 210 200 179 184 183 186 184 180 179 172 174 170 161 156 152
323 316 307 303 306 314 315 313 313 300 291 278 275 270 272 268 257 247 240 241 240 243 238 237 225 210 206 200 203 190 181 180 179 182 152 162 164 173 166 161 156 157 158
313 305 321 308 314 320 324 331 329 317 302 290 288 274 270 277 272 237 229 227 225 229 235 228 211 203 199 196 192 183 180 183 179 175 165 161 168 170 162 160 159 158 157
310 328 331 310 321 331 324 334 331 318 307 297 284 271 276 265 243 216 212 214 214 228 236 220 207 198 196 192 189 183 179 174 168 172 159 170 171 164 163 159 160 155 151
328 339 338 318 323 333 324 328 320 315 301 292 278 258 249 212 174 186 192 201 210 214 204 204 196 194 194 189 193 187 181 171 163 159 158 162 163 163 163 158 154 150 147
344 343 345 329 330 338 330 326 328 325 315 304 279 256 253 230 182 179 185 191 195 194 187 194 188 193 191 190 193 188 180 176 174 163 157 154 164 167 163 159 156 152 150
14 356 352 350 340 346 336 331 334 333 347 343 303 262 254 257 247 217 196 189 188 189 185 180 178 184 182 188 187 188 181 176 172 164 151 156 167 171 163 159 156 151 149
24 3 8 3 0 358 342 342 338 343 349 333 317 290 272 266 245 221 190 188 187 184 179 174 174 173 181 180 174 184 175 174 164 153 154 161 180 166 159 157 155 155 148
21 1 11 8 5 353 345 340 350 0 355 341 341 313 291 286 243 203 183 181 180 173 171 174 171 172 173 169 171 166 164 156 160 153 161 164 160 160 159 157 159 154 151
15 0 360 349 352 341 328 336 345 358 7 14 359 20 90 103 160 168 158 161 165 168 169 168 163 168 159 149 141 134 149 150 150 151 148 150 147 157 159 155 156 155 150
320 347 13 22 7 353 344 351 356 0 360 30 31 38 332 180 156 162 160 159 167 169 164 166 160 154 148 140 127 116 114 124 128 137 146 155 157 165 160 164 148 153 147
351 294 352 3 360 359 359 353 355 353 5 44 61 60 68 92 141 138 149 148 153 156 150 157 151 150 143 139 135 123 119 110 120 140 158 163 165 164 162 156 143 148 148
18 15 356 347 342 346 2 17 14 25 55 80 61 70 55 100 102 98 120 136 130 148 126 146 153 145 135 134 132 144 120 123 113 102 127 132 141 143 145 136 138 136 132
164 67 41 348 336 346 19 43 63 37 65 75 88 81 80 85 81 83 99 118 127 131 124 151 131 142 140 132 126 135 122 146 118 130 96 106 129 129 122 120 128 128 126
197 114 52 18 22 50 69 73 69 56 68 69 77 90 87 84 77 88 77 95 116 126 147 144 119 137 142 130 138 123 120 124 124 126 109 97 102 113 128 132 133 136 148
200 167 137 38 36 115 105 77 60 45 69 86 72 82 72 44 52 51 69 98 102 131 132 124 110 125 147 133 139 134 138 143 138 131 121 95 114 103 117 128 134 145 134